SAST,Max TemperatureF,Mean TemperatureF,Min TemperatureF,Max Dew PointF,MeanDew PointF,Min DewpointF,Max Humidity, Mean Humidity, Min Humidity, Max Sea Level PressureIn, Mean Sea Level PressureIn, Min Sea Level PressureIn, Max VisibilityMiles, Mean VisibilityMiles, Min VisibilityMiles, Max Wind SpeedMPH, Mean Wind SpeedMPH, Max Gust SpeedMPH,PrecipitationIn, CloudCover, Events, WindDirDegrees
2013-10-1,79,65,51,37,31,22,44,23,8,30.42,30.42,30.42,,,,17,13,,0.00,,,5
2013-10-2,85,65,45,28,24,13,41,17,4,30.33,30.31,30.27,19,19,19,12,6,,0.00,,,180
2013-10-3,90,68,47,25,17,10,27,12,4,30.24,30.24,30.24,,,,10,5,,0.00,,,10
2013-10-4,94,70,46,40,19,10,20,10,4,30.15,30.15,30.15,,,,15,6,,0.00,,,15
2013-10-5,93,70,48,49,21,12,26,13,4,30.15,30.14,30.12,,,,10,3,,0.00,,,27
2013-10-6,85,68,52,33,24,18,23,11,6,30.18,30.18,30.18,,,,15,10,,0.00,,,190
2013-10-7,81,64,48,49,36,18,48,31,9,30.27,30.27,30.27,,,,13,9,,0.00,,,136
2013-10-8,88,64,39,41,22,1,58,21,4,30.24,30.24,30.24,,,,8,3,,0.00,,,25
2013-10-9,91,66,42,7,3,-2,14,8,4,30.15,30.12,30.12,,,,16,6,,0.00,,,317
2013-10-10,93,68,42,16,12,5,22,9,4,30.15,30.14,30.12,,,,9,6,,0.00,,,358
2013-10-11,97,76,54,34,25,14,23,12,4,30.15,30.12,30.09,,,,21,12,,0.00,,,355
2013-10-12,83,68,54,24,17,10,23,10,4,30.06,30.06,30.04,,,,24,11,,0.00,,,254
2013-10-13,68,54,40,30,22,15,53,23,6,30.18,30.14,30.09,,,,14,12,,0.00,,,0
2013-10-14,77,57,37,25,15,7,29,17,4,30.30,30.28,30.27,,,,15,8,,0.00,,,134
2013-10-15,90,68,47,41,28,6,50,23,4,30.27,30.24,30.21,,,,22,9,,0.00,,,15
2013-10-16,89,68,48,30,16,7,15,8,4,30.24,30.23,30.21,,,,15,10,,0.00,,,273
2013-10-17,84,67,50,14,10,3,18,9,4,30.15,30.15,30.15,,,,14,8,,0.00,,,314
2013-10-18,78,60,43,37,29,7,62,31,5,30.15,30.14,30.12,,,,13,8,,0.00,,,150
2013-10-19,78,63,48,45,37,28,55,28,11,30.12,30.12,30.12,,,,13,9,,0.00,,,95
2013-10-20,77,66,54,55,49,33,82,53,16,29.98,29.90,29.86,19,9,2,25,12,,0.20,2,Rain-Thunderstorm,177
2013-10-21,74,62,49,50,41,29,89,50,11,30.01,29.96,29.89,6,6,5,21,10,26,0.16,1,Rain,214
2013-10-22,70,56,42,44,34,17,85,43,6,30.12,30.12,30.12,,,,16,10,,0.00,,,190
2013-10-23,78,60,41,32,28,20,57,27,5,30.21,30.20,30.18,,,,9,5,,0.00,,,125
2013-10-24,86,70,55,48,40,27,52,26,9,30.21,30.20,30.18,,,,24,17,32,0.00,,,20
2013-10-25,81,68,56,55,50,33,89,48,17,30.09,30.03,29.95,19,8,6,25,15,,0.04,3,Rain-Thunderstorm,3
2013-10-26,81,64,46,43,41,38,78,41,14,30.04,30.04,30.04,,,,12,6,,0.00,,,317
2013-10-27,84,66,48,48,43,37,77,40,11,30.15,30.14,30.12,,,,8,6,,0.00,,,132
2013-10-28,88,74,60,54,45,30,63,35,9,30.12,30.03,29.98,6,6,6,22,14,33,0.00,1,Thunderstorm,257
2013-10-29,88,68,47,49,44,31,82,44,7,30.09,30.08,30.04,,,,16,8,,0.00,,,76
2013-10-30,93,74,54,46,34,20,55,23,4,29.89,29.88,29.83,12,12,12,24,12,,0.00,,,336
2013-10-31,71,60,50,35,29,21,47,23,8,29.89,29.89,29.89,,,,18,14,,0.00,,,240